SDM6587 ULLI-UUYY

Flight info

Callsign SDM6587
Flight time 1h 29m
Altitude 35000
Route K0813F350 KERIS P989 ADKOL
Aircraft A319/M-SDE3FGHIRWY/LB1

Departure

Time 2026-05-05 09:05
Airport Pulkovo Airport (ULLI)

Arrival

Time 2026-05-05 10:35
Airport Syktyvkar Airport (UUYY)
Time Latitude Longitude Altitude Speed Heading
2026-05-05 08:06 59.79739 30.26613 78 ft 0 kts 107°
2026-05-05 08:13 59.79739 30.26612 78 ft 0 kts 107°
2026-05-05 08:24 59.79739 30.26611 79 ft 0 kts 107°
2026-05-05 08:28 59.79740 30.26611 79 ft 0 kts 107°
2026-05-05 08:37 59.79740 30.26610 79 ft 0 kts 107°
2026-05-05 08:48 59.79743 30.26585 86 ft 4 kts 100°
2026-05-05 08:48 59.79744 30.26532 87 ft 4 kts 71°
2026-05-05 08:48 59.79730 30.26490 87 ft 4 kts 26°
2026-05-05 08:49 59.79723 30.26483 86 ft 3 kts 16°
2026-05-05 08:53 59.79728 30.26486 86 ft 1 kts 16°
2026-05-05 08:54 59.79746 30.26496 83 ft 4 kts 16°
2026-05-05 08:54 59.79780 30.26516 84 ft 6 kts 16°
2026-05-05 08:54 59.79829 30.26545 82 ft 8 kts 17°
2026-05-05 08:54 59.79891 30.26581 84 ft 10 kts 17°
2026-05-05 08:55 59.79967 30.26627 86 ft 12 kts 17°
2026-05-05 08:55 59.80053 30.26677 85 ft 12 kts 16°
2026-05-05 08:55 59.80134 30.26725 86 ft 13 kts 16°
2026-05-05 08:55 59.80223 30.26778 85 ft 13 kts 16°
2026-05-05 08:56 59.80313 30.26830 84 ft 13 kts 16°
2026-05-05 08:56 59.80381 30.26880 82 ft 8 kts 51°
2026-05-05 08:56 59.80376 30.26991 82 ft 9 kts 105°
2026-05-05 08:56 59.80356 30.27127 83 ft 11 kts 106°
2026-05-05 08:57 59.80332 30.27290 86 ft 13 kts 106°
2026-05-05 08:57 59.80303 30.27481 85 ft 15 kts 106°
2026-05-05 08:57 59.80271 30.27699 84 ft 18 kts 107°
2026-05-05 08:57 59.80241 30.27897 84 ft 15 kts 106°
2026-05-05 08:58 59.80210 30.28104 81 ft 13 kts 106°
2026-05-05 08:58 59.80182 30.28289 82 ft 15 kts 106°
2026-05-05 08:58 59.80151 30.28500 77 ft 17 kts 106°
2026-05-05 08:58 59.80125 30.28676 76 ft 11 kts 106°
2026-05-05 08:59 59.80100 30.28842 71 ft 14 kts 106°
2026-05-05 08:59 59.80070 30.29036 76 ft 15 kts 108°
2026-05-05 08:59 59.80045 30.29207 74 ft 13 kts 106°
2026-05-05 08:59 59.80020 30.29380 78 ft 14 kts 108°
2026-05-05 09:00 59.79989 30.29580 75 ft 16 kts 107°
2026-05-05 09:00 59.79961 30.29765 76 ft 11 kts 107°
2026-05-05 09:00 59.79937 30.29929 74 ft 13 kts 106°
2026-05-05 09:00 59.79970 30.30092 67 ft 11 kts 45°
2026-05-05 09:01 59.79994 30.30145 76 ft 0 kts 47°
2026-05-05 09:02 59.79997 30.30150 73 ft 2 kts 47°
2026-05-05 09:02 59.80011 30.30182 73 ft 4 kts 47°
2026-05-05 09:02 59.80038 30.30240 71 ft 7 kts 47°
2026-05-05 09:03 59.80087 30.30298 77 ft 9 kts 18°
2026-05-05 09:03 59.80115 30.30271 77 ft 5 kts 275°
2026-05-05 09:03 59.80121 30.30230 73 ft 0 kts 288°
2026-05-05 09:03 59.80121 30.30228 73 ft 0 kts 288°
2026-05-05 09:04 59.80125 30.30202 70 ft 8 kts 288°
2026-05-05 09:04 59.80192 30.29748 69 ft 70 kts 286°
2026-05-05 09:04 59.80389 30.28414 77 ft 130 kts 286°
2026-05-05 09:05 59.80674 30.26377 151 ft 169 kts 283°
2026-05-05 09:05 59.80998 30.24155 823 ft 167 kts 284°
2026-05-05 09:05 59.81333 30.21962 1655 ft 165 kts 281°
2026-05-05 09:05 59.81672 30.19709 2248 ft 177 kts 281°
2026-05-05 09:06 59.82034 30.17255 2706 ft 196 kts 281°
2026-05-05 09:06 59.82435 30.14528 3216 ft 215 kts 282°
2026-05-05 09:06 59.82862 30.11651 4097 ft 217 kts 283°
2026-05-05 09:06 59.83290 30.08787 5091 ft 216 kts 283°
2026-05-05 09:07 59.83715 30.05929 6106 ft 215 kts 283°
2026-05-05 09:07 59.84138 30.03081 7053 ft 215 kts 283°
2026-05-05 09:07 59.84867 30.00446 7948 ft 228 kts 309°
2026-05-05 09:07 59.86332 29.98999 8843 ft 253 kts 344°
2026-05-05 09:08 59.88152 29.99323 9742 ft 270 kts
2026-05-05 09:08 59.89996 30.00281 10518 ft 278 kts
2026-05-05 09:08 59.91732 30.02249 11220 ft 302 kts 39°
2026-05-05 09:08 59.92913 30.05791 11934 ft 315 kts 69°
2026-05-05 09:09 59.93229 30.10101 12646 ft 317 kts 99°
2026-05-05 09:09 59.92742 30.14365 13384 ft 316 kts 111°
2026-05-05 09:09 59.92109 30.18576 14070 ft 317 kts 117°
2026-05-05 09:09 59.91210 30.22680 14387 ft 334 kts 121°
2026-05-05 09:10 59.90202 30.27030 14564 ft 357 kts 121°
2026-05-05 09:10 59.89229 30.31684 15021 ft 371 kts 112°
2026-05-05 09:10 59.88677 30.36803 15439 ft 390 kts 99°
2026-05-05 09:10 59.88505 30.42327 15672 ft 407 kts 95°
2026-05-05 09:11 59.88355 30.48007 16206 ft 414 kts 95°
2026-05-05 09:11 59.88195 30.53776 16817 ft 419 kts 96°
2026-05-05 09:11 59.88023 30.59593 17440 ft 423 kts 96°
2026-05-05 09:11 59.87841 30.65466 18042 ft 427 kts 96°
2026-05-05 09:12 59.87654 30.71399 18582 ft 431 kts 96°
2026-05-05 09:12 59.87465 30.77377 19148 ft 434 kts 96°
2026-05-05 09:12 59.87272 30.83393 19722 ft 437 kts 96°
2026-05-05 09:12 59.87078 30.89456 20290 ft 440 kts 96°
2026-05-05 09:13 59.86881 30.95547 20855 ft 443 kts 96°
2026-05-05 09:13 59.86679 31.01609 21397 ft 446 kts 97°
2026-05-05 09:13 59.86471 31.07800 21954 ft 449 kts 97°
2026-05-05 09:13 59.86259 31.14018 22485 ft 452 kts 97°
2026-05-05 09:14 59.86041 31.20282 23004 ft 455 kts 97°
2026-05-05 09:14 59.85817 31.26588 23472 ft 458 kts 97°
2026-05-05 09:14 59.85583 31.33019 23903 ft 461 kts 97°
2026-05-05 09:14 59.85351 31.39394 24319 ft 464 kts 97°
2026-05-05 09:15 59.85114 31.45812 24728 ft 467 kts 97°
2026-05-05 09:15 59.84875 31.52266 25131 ft 469 kts 97°
2026-05-05 09:15 59.84633 31.58674 25522 ft 472 kts 97°
2026-05-05 09:15 59.84385 31.65200 25922 ft 474 kts 97°
2026-05-05 09:16 59.84129 31.71847 26329 ft 477 kts 97°
2026-05-05 09:16 59.83872 31.78441 26727 ft 479 kts 97°
2026-05-05 09:16 59.83608 31.85061 27118 ft 482 kts 97°
2026-05-05 09:16 59.83338 31.91721 27507 ft 484 kts 97°
2026-05-05 09:17 59.83066 31.98408 27886 ft 487 kts 97°
2026-05-05 09:17 59.82792 32.05130 28277 ft 489 kts 97°
2026-05-05 09:17 59.82511 32.11889 28654 ft 492 kts 97°
2026-05-05 09:17 59.82221 32.18667 29016 ft 494 kts 97°
2026-05-05 09:18 59.81929 32.25491 29384 ft 496 kts 96°
2026-05-05 09:18 59.81920 32.32372 29713 ft 501 kts 87°
2026-05-05 09:18 59.82395 32.39246 30009 ft 504 kts 78°
2026-05-05 09:18 59.83312 32.45988 30298 ft 506 kts 73°
2026-05-05 09:19 59.84302 32.52708 30586 ft 508 kts 73°
2026-05-05 09:19 59.85286 32.59471 30864 ft 510 kts 73°
2026-05-05 09:19 59.86263 32.66263 31177 ft 511 kts 74°
2026-05-05 09:19 59.87227 32.73049 31583 ft 509 kts 74°
2026-05-05 09:20 59.88182 32.79823 31997 ft 508 kts 74°
2026-05-05 09:20 59.89133 32.86587 32392 ft 507 kts 74°
2026-05-05 09:20 59.90080 32.93339 32793 ft 506 kts 75°
2026-05-05 09:20 59.91026 33.00081 33190 ft 505 kts 75°
2026-05-05 09:21 59.91968 33.06825 33576 ft 504 kts 75°
2026-05-05 09:21 59.92903 33.13548 33949 ft 503 kts 75°
2026-05-05 09:21 59.93835 33.20262 34277 ft 502 kts 75°
2026-05-05 09:21 59.94766 33.26965 34589 ft 502 kts 75°
2026-05-05 09:22 59.95693 33.33667 34717 ft 501 kts 75°
2026-05-05 09:22 59.97524 33.46992 34741 ft 496 kts 75°
2026-05-05 09:23 59.99332 33.60258 34740 ft 495 kts 75°
2026-05-05 09:23 60.01120 33.73533 34739 ft 495 kts 75°
2026-05-05 09:24 60.02896 33.86815 34740 ft 494 kts 75°
2026-05-05 09:24 60.04660 34.00102 34739 ft 495 kts 75°
2026-05-05 09:25 60.06409 34.13418 34739 ft 494 kts 75°
2026-05-05 09:25 60.08148 34.26734 34739 ft 494 kts 75°
2026-05-05 09:26 60.09876 34.40063 34742 ft 494 kts 76°
2026-05-05 09:26 60.11583 34.53415 34747 ft 494 kts 76°
2026-05-05 09:27 60.13276 34.66769 34749 ft 494 kts 76°
2026-05-05 09:27 60.14957 34.80141 34747 ft 494 kts 76°
2026-05-05 09:28 60.16626 34.93534 34748 ft 494 kts 76°
2026-05-05 09:28 60.18277 35.06941 34747 ft 495 kts 76°
2026-05-05 09:29 60.19904 35.20279 34744 ft 495 kts 76°
2026-05-05 09:29 60.21549 35.33726 34747 ft 495 kts 76°
2026-05-05 09:30 60.23194 35.47168 34746 ft 495 kts 76°
2026-05-05 09:30 60.24822 35.60648 34742 ft 495 kts 76°
2026-05-05 09:31 60.26430 35.74143 34743 ft 496 kts 76°
2026-05-05 09:31 60.28023 35.87648 34740 ft 496 kts 77°
2026-05-05 09:32 60.29602 36.01187 34737 ft 496 kts 77°
2026-05-05 09:32 60.31173 36.14739 34736 ft 496 kts 77°
2026-05-05 09:33 60.32729 36.28309 34732 ft 497 kts 77°
2026-05-05 09:33 60.34271 36.41901 34729 ft 497 kts 77°
2026-05-05 09:34 60.35805 36.55514 34723 ft 497 kts 77°
2026-05-05 09:34 60.37070 36.66924 34721 ft 497 kts 77°
2026-05-05 09:35 60.38579 36.80564 34718 ft 497 kts 77°
2026-05-05 09:35 60.40817 37.01031 34716 ft 497 kts 78°
2026-05-05 09:36 60.42281 37.14693 34715 ft 497 kts 78°
2026-05-05 09:36 60.43732 37.28368 34715 ft 497 kts 78°
2026-05-05 09:37 60.45175 37.42036 34709 ft 496 kts 78°
2026-05-05 09:37 60.46603 37.55710 34710 ft 496 kts 78°
2026-05-05 09:38 60.48042 37.69281 34708 ft 495 kts 77°
2026-05-05 09:38 60.49506 37.83013 34710 ft 495 kts 78°
2026-05-05 09:39 60.50930 37.96581 34710 ft 495 kts 78°
2026-05-05 09:39 60.52346 38.10343 34711 ft 494 kts 78°
2026-05-05 09:40 60.53730 38.23922 34707 ft 494 kts 78°
2026-05-05 09:40 60.55126 38.37682 34707 ft 494 kts 78°
2026-05-05 09:41 60.56489 38.51361 34705 ft 494 kts 78°
2026-05-05 09:41 60.57842 38.65045 34702 ft 493 kts 78°
2026-05-05 09:42 60.59175 38.78638 34698 ft 493 kts 78°
2026-05-05 09:42 60.60475 38.92346 34698 ft 494 kts 79°
2026-05-05 09:43 60.61657 39.06118 34700 ft 494 kts 80°
2026-05-05 09:43 60.62795 39.19904 34701 ft 494 kts 80°
2026-05-05 09:44 60.63945 39.33690 34702 ft 494 kts 80°
2026-05-05 09:44 60.65086 39.47473 34704 ft 493 kts 80°
2026-05-05 09:45 60.66217 39.61269 34702 ft 493 kts 81°
2026-05-05 09:45 60.67333 39.75065 34701 ft 493 kts 81°
2026-05-05 09:46 60.68427 39.88862 34701 ft 493 kts 81°
2026-05-05 09:46 60.69501 40.02666 34696 ft 492 kts 81°
2026-05-05 09:47 60.70571 40.16469 34695 ft 492 kts 81°
2026-05-05 09:47 60.71629 40.30267 34692 ft 492 kts 81°
2026-05-05 09:48 60.72668 40.44093 34686 ft 492 kts 81°
2026-05-05 09:48 60.73697 40.58003 34689 ft 492 kts 81°
2026-05-05 09:49 60.74705 40.71819 34678 ft 492 kts 81°
2026-05-05 09:49 60.75698 40.85562 34679 ft 491 kts 82°
2026-05-05 09:50 60.76677 40.99389 34677 ft 491 kts 82°
2026-05-05 09:50 60.77639 41.13222 34674 ft 491 kts 82°
2026-05-05 09:51 60.78594 41.27064 34667 ft 491 kts 82°
2026-05-05 09:51 60.79533 41.40994 34661 ft 491 kts 82°
2026-05-05 09:52 60.80441 41.54754 34662 ft 491 kts 82°
2026-05-05 09:52 60.81319 41.68610 34659 ft 490 kts 83°
2026-05-05 09:53 60.82150 41.82573 34660 ft 490 kts 83°
2026-05-05 09:53 60.82949 41.96360 34655 ft 490 kts 83°
2026-05-05 09:54 60.83753 42.10237 34650 ft 490 kts 83°
2026-05-05 09:54 60.84557 42.24118 34649 ft 490 kts 83°
2026-05-05 09:55 60.85346 42.38001 34650 ft 490 kts 83°
2026-05-05 09:55 60.86108 42.51893 34650 ft 490 kts 83°
2026-05-05 09:56 60.86859 42.65802 34651 ft 490 kts 83°
2026-05-05 09:56 60.87599 42.79705 34644 ft 490 kts 84°
2026-05-05 09:57 60.88321 42.93600 34640 ft 490 kts 84°
2026-05-05 09:57 60.89027 43.07503 34646 ft 489 kts 84°
2026-05-05 09:58 60.89717 43.21407 34642 ft 489 kts 84°
2026-05-05 09:58 60.90397 43.35310 34644 ft 489 kts 84°
2026-05-05 09:59 60.91058 43.49213 34640 ft 489 kts 84°
2026-05-05 09:59 60.91704 43.63103 34640 ft 489 kts 84°
2026-05-05 10:00 60.92345 43.77028 34647 ft 489 kts 84°
2026-05-05 10:00 60.92973 43.90936 34644 ft 489 kts 84°
2026-05-05 10:01 60.93570 44.04845 34645 ft 488 kts 85°
2026-05-05 10:01 60.94550 44.18613 34640 ft 487 kts 74°
2026-05-05 10:02 60.96270 44.32087 34631 ft 487 kts 74°
2026-05-05 10:02 60.97951 44.45588 34630 ft 487 kts 75°
2026-05-05 10:03 60.99603 44.59105 34632 ft 486 kts 75°
2026-05-05 10:03 61.01254 44.72632 34619 ft 486 kts 75°
2026-05-05 10:04 61.02894 44.86154 34606 ft 486 kts 75°
2026-05-05 10:04 61.04523 44.99704 34604 ft 486 kts 75°
2026-05-05 10:05 61.06130 45.13257 34612 ft 486 kts 75°
2026-05-05 10:05 61.07724 45.26836 34611 ft 486 kts 75°
2026-05-05 10:06 61.09310 45.40416 34612 ft 486 kts 75°
2026-05-05 10:06 61.10880 45.53996 34605 ft 486 kts 75°
2026-05-05 10:07 61.12436 45.67586 34602 ft 485 kts 76°
2026-05-05 10:07 61.13969 45.81179 34599 ft 485 kts 76°
2026-05-05 10:08 61.15492 45.94792 34600 ft 485 kts 76°
2026-05-05 10:08 61.16995 46.08399 34596 ft 485 kts 76°
2026-05-05 10:09 61.18504 46.22011 34592 ft 485 kts 76°
2026-05-05 10:09 61.20009 46.35632 34595 ft 484 kts 76°
2026-05-05 10:10 61.21488 46.49260 34600 ft 484 kts 76°
2026-05-05 10:10 61.22944 46.62901 34594 ft 484 kts 77°
2026-05-05 10:11 61.24415 46.76547 34587 ft 484 kts 75°
2026-05-05 10:11 61.26103 46.90073 34586 ft 483 kts 73°
2026-05-05 10:12 61.27875 47.03537 34587 ft 483 kts 73°
2026-05-05 10:12 61.29585 47.17061 34588 ft 483 kts 75°
2026-05-05 10:13 61.31227 47.30666 34101 ft 485 kts 75°
2026-05-05 10:13 61.32010 47.37484 33631 ft 485 kts 76°
2026-05-05 10:13 61.32711 47.44350 33087 ft 485 kts 78°
2026-05-05 10:14 61.33348 47.51249 32554 ft 485 kts 79°
2026-05-05 10:14 61.33748 47.55802 32210 ft 483 kts 79°
2026-05-05 10:14 61.34540 47.64967 31512 ft 478 kts 79°
2026-05-05 10:14 61.34934 47.69469 31163 ft 475 kts 79°
2026-05-05 10:15 61.35536 47.76209 30667 ft 471 kts 78°
2026-05-05 10:15 61.36164 47.82874 30168 ft 467 kts 77°
2026-05-05 10:15 61.36842 47.89456 29680 ft 463 kts 76°
2026-05-05 10:15 61.37546 47.95976 29108 ft 459 kts 76°
2026-05-05 10:16 61.38255 48.02437 28544 ft 455 kts 76°
2026-05-05 10:16 61.38951 48.08853 27989 ft 452 kts 76°
2026-05-05 10:16 61.39626 48.15227 27450 ft 448 kts 77°
2026-05-05 10:16 61.40285 48.21565 26915 ft 445 kts 77°
2026-05-05 10:17 61.40932 48.27863 26395 ft 443 kts 77°
2026-05-05 10:17 61.41568 48.34137 25879 ft 440 kts 77°
2026-05-05 10:17 61.42194 48.40369 25382 ft 438 kts 77°
2026-05-05 10:17 61.42816 48.46577 24879 ft 436 kts 77°
2026-05-05 10:18 61.43433 48.52757 24395 ft 434 kts 78°
2026-05-05 10:18 61.44048 48.58916 23913 ft 432 kts 78°
2026-05-05 10:18 61.44658 48.65048 23449 ft 431 kts 78°
2026-05-05 10:18 61.45264 48.71171 22943 ft 429 kts 78°
2026-05-05 10:19 61.45865 48.77277 22392 ft 428 kts 78°
2026-05-05 10:19 61.46460 48.83362 21852 ft 427 kts 78°
2026-05-05 10:19 61.47052 48.89444 21317 ft 426 kts 78°
2026-05-05 10:19 61.47640 48.95499 20793 ft 424 kts 79°
2026-05-05 10:20 61.48224 49.01535 20297 ft 422 kts 79°
2026-05-05 10:20 61.48804 49.07544 19848 ft 419 kts 79°
2026-05-05 10:20 61.49375 49.13501 19421 ft 415 kts 79°
2026-05-05 10:20 61.49930 49.19361 19001 ft 408 kts 79°
2026-05-05 10:21 61.50475 49.25171 18593 ft 405 kts 79°
2026-05-05 10:21 61.51015 49.30946 18183 ft 403 kts 79°
2026-05-05 10:21 61.51669 49.36633 17765 ft 400 kts 71°
2026-05-05 10:21 61.52727 49.41999 17308 ft 397 kts 64°
2026-05-05 10:22 61.53873 49.47242 16851 ft 395 kts 64°
2026-05-05 10:22 61.55010 49.52456 16405 ft 392 kts 64°
2026-05-05 10:22 61.56135 49.57653 15979 ft 390 kts 64°
2026-05-05 10:22 61.57249 49.62813 15567 ft 387 kts 64°
2026-05-05 10:23 61.58354 49.67946 15159 ft 383 kts 64°
2026-05-05 10:23 61.59438 49.72995 14761 ft 376 kts 64°
2026-05-05 10:23 61.60500 49.77956 14376 ft 369 kts 64°
2026-05-05 10:23 61.61539 49.82835 13980 ft 362 kts 64°
2026-05-05 10:24 61.62560 49.87629 13591 ft 357 kts 64°
2026-05-05 10:24 61.63567 49.92356 13194 ft 352 kts 64°
2026-05-05 10:24 61.64559 49.97036 12763 ft 349 kts 64°
2026-05-05 10:24 61.65538 50.01676 12341 ft 346 kts 64°
2026-05-05 10:25 61.66510 50.06296 11934 ft 345 kts 64°
2026-05-05 10:25 61.67484 50.10914 11510 ft 346 kts 64°
2026-05-05 10:25 61.68457 50.15536 11077 ft 344 kts 64°
2026-05-05 10:25 61.69421 50.20125 10662 ft 341 kts 64°
2026-05-05 10:26 61.70372 50.24676 10244 ft 339 kts 64°
2026-05-05 10:26 61.71317 50.29200 9832 ft 336 kts 64°
2026-05-05 10:26 61.72253 50.33693 9414 ft 334 kts 65°
2026-05-05 10:26 61.73182 50.38167 8962 ft 331 kts 65°
2026-05-05 10:27 61.74104 50.42606 8505 ft 330 kts 65°
2026-05-05 10:27 61.75024 50.47035 8041 ft 328 kts 64°
2026-05-05 10:27 61.76138 50.51194 7581 ft 323 kts 54°
2026-05-05 10:27 61.77365 50.55125 7130 ft 318 kts 54°
2026-05-05 10:28 61.78572 50.59005 6682 ft 314 kts 54°
2026-05-05 10:28 61.79759 50.62831 6244 ft 307 kts 54°
2026-05-05 10:28 61.80917 50.66560 5798 ft 300 kts 55°
2026-05-05 10:28 61.82048 50.70204 5335 ft 293 kts 55°
2026-05-05 10:29 61.83143 50.73778 4878 ft 286 kts 59°
2026-05-05 10:29 61.83835 50.77651 4403 ft 279 kts 82°
2026-05-05 10:29 61.83907 50.81657 3917 ft 268 kts 102°
2026-05-05 10:29 61.83447 50.85417 3407 ft 258 kts 121°
2026-05-05 10:30 61.82585 50.88527 3227 ft 235 kts 136°
2026-05-05 10:30 61.81483 50.90924 2973 ft 222 kts 149°
2026-05-05 10:30 61.80216 50.92635 2697 ft 211 kts 162°
2026-05-05 10:30 61.78870 50.93665 2411 ft 201 kts 174°
2026-05-05 10:31 61.77546 50.94050 2297 ft 185 kts 185°
2026-05-05 10:31 61.76297 50.93898 2306 ft 176 kts 195°
2026-05-05 10:31 61.75184 50.93337 2258 ft 156 kts 204°
2026-05-05 10:31 61.74211 50.92535 2106 ft 144 kts 208°
2026-05-05 10:32 61.73325 50.91791 1950 ft 132 kts 208°
2026-05-05 10:32 61.72484 50.91080 1770 ft 129 kts 207°
2026-05-05 10:32 61.71647 50.90372 1608 ft 129 kts 208°
2026-05-05 10:32 61.70823 50.89676 1449 ft 127 kts 209°
2026-05-05 10:33 61.70004 50.88984 1282 ft 129 kts 206°
2026-05-05 10:33 61.69167 50.88278 1091 ft 130 kts 207°
2026-05-05 10:33 61.68322 50.87563 909 ft 130 kts 204°
2026-05-05 10:33 61.67475 50.86861 729 ft 130 kts 203°
2026-05-05 10:34 61.66637 50.86151 573 ft 130 kts 203°
2026-05-05 10:34 61.65793 50.85449 367 ft 132 kts 203°
2026-05-05 10:34 61.65007 50.84774 329 ft 109 kts 202°
2026-05-05 10:34 61.64466 50.84347 329 ft 55 kts 201°
2026-05-05 10:35 61.64168 50.84090 349 ft 34 kts 201°
2026-05-05 10:35 61.63987 50.83937 337 ft 23 kts 202°
2026-05-05 10:35 61.63876 50.83844 335 ft 16 kts 201°
2026-05-05 10:35 61.63780 50.83764 344 ft 14 kts 202°
2026-05-05 10:36 61.63707 50.83675 344 ft 9 kts 243°
2026-05-05 10:36 61.63690 50.83656 348 ft 3 kts 84°
2026-05-05 10:36 61.63723 50.83714 346 ft 9 kts 21°
2026-05-05 10:36 61.63793 50.83774 345 ft 12 kts 22°
2026-05-05 10:37 61.63884 50.83852 334 ft 17 kts 22°
2026-05-05 10:37 61.63999 50.83949 335 ft 18 kts 19°
2026-05-05 10:37 61.64117 50.84051 337 ft 18 kts 24°
2026-05-05 10:37 61.64236 50.84165 339 ft 21 kts 21°
2026-05-05 10:38 61.64357 50.84254 335 ft 20 kts 20°
2026-05-05 10:38 61.64496 50.84363 329 ft 22 kts 22°
2026-05-05 10:38 61.64632 50.84480 328 ft 17 kts 22°
2026-05-05 10:38 61.64739 50.84581 327 ft 18 kts 25°
2026-05-05 10:39 61.64848 50.84657 331 ft 15 kts 21°
2026-05-05 10:39 61.64952 50.84745 327 ft 17 kts 22°
2026-05-05 10:39 61.65066 50.84842 324 ft 19 kts 22°
2026-05-05 10:39 61.65189 50.84944 324 ft 13 kts 21°
2026-05-05 10:40 61.65273 50.85014 329 ft 13 kts 21°
2026-05-05 10:40 61.65345 50.85074 332 ft 11 kts 21°
2026-05-05 10:40 61.65422 50.85140 330 ft 14 kts 23°
2026-05-05 10:40 61.65520 50.85222 327 ft 16 kts 22°
2026-05-05 10:41 61.65643 50.85325 324 ft 21 kts 22°
2026-05-05 10:41 61.65726 50.85357 323 ft 13 kts 334°
2026-05-05 10:41 61.65818 50.85271 316 ft 17 kts 337°
2026-05-05 10:41 61.65884 50.85214 313 ft 5 kts 338°
2026-05-05 10:42 61.65950 50.85164 309 ft 11 kts 343°
2026-05-05 10:42 61.66042 50.85189 305 ft 16 kts 20°
2026-05-05 10:42 61.66116 50.85250 302 ft 7 kts 21°
2026-05-05 10:43 61.66143 50.85273 302 ft 0 kts 21°
2026-05-05 10:44 61.66152 50.85280 302 ft 4 kts 21°
2026-05-05 10:44 61.66190 50.85314 302 ft 4 kts 22°
2026-05-05 10:45 61.66224 50.85346 304 ft 6 kts 28°
2026-05-05 10:45 61.66253 50.85371 307 ft 3 kts
2026-05-05 10:45 61.66266 50.85354 308 ft 3 kts 318°
2026-05-05 10:45 61.66273 50.85335 310 ft 3 kts 304°
2026-05-05 10:46 61.66279 50.85316 312 ft 0 kts 306°
2026-05-05 10:46 61.66281 50.85311 313 ft 0 kts 306°
2026-05-05 10:46 61.66282 50.85308 313 ft 1 kts 307°
2026-05-05 10:46 61.66286 50.85298 314 ft 0 kts 306°
2026-05-05 10:55 61.66285 50.85298 314 ft 0 kts 306°